Seminole, OK

4:39 AM CST on November 21, 2019 (GMT -0600)
Seminole

Weather History for KSRE - October, 2019

Change the Weather History Date:

Saturday, October 19, 2019

  Actual Average (KADH) Record (KADH)
Temperature  
Mean Temperature 64 °F -  
Max Temperature 75 °F 72 °F 91 °F (1940)
Min Temperature 53 °F 47 °F 28 °F (1917)
Degree Days  
Heating Degree Days 1    
Growing Degree Days 14 (Base 50)    
Moisture  
Dew Point 50 °F    
Average Humidity 66    
Maximum Humidity 88    
Minimum Humidity 41    
Precipitation  
Precipitation 0.03 in - - ()
Sea Level Pressure  
Sea Level Pressure 29.77 in    
Wind  
Wind Speed 6 mph ()    
Max Wind Speed 14 mph    
Max Gust Speed 20 mph    
Visibility 7.9 miles    
Events Rain , Thunderstorm    
Averages and records for this station are not official NWS values.
T = Trace of Precipitation, MM = Missing Value Source: Averaged Metar Reports

Daily Weather History Graph

Daily Weather History Graph

Search for Another Location

Airport or City:

Astronomy

Oct. 19, 2019 Rise Set
Actual Time 7:36 AM CDT 6:46 PM CDT
Civil Twilight 7:10 AM CDT 7:12 PM CDT
Nautical Twilight 6:40 AM CDT 7:41 PM CDT
Astronomical Twilight 6:11 AM CDT 8:11 PM CDT
Moon 11:05 PM CDT (10/19) 1:00 PM CDT (10/19)
Length of Visible Light 12h 01m
Length of Day
11h 10m
Waning Gibbous, 69% of the Moon is Illuminated
Oct 19
Waning Gibbous
Oct 21
Last Quarter
Oct 27
New
Nov 4
First Quarter
Nov 12
Full

Hourly Weather History & Observations

Time (CDT) Temp. Dew Point Humidity Pressure Visibility Wind Dir Wind Speed Gust Speed Precip Events Conditions
12:15 AM 60.8 °F 44.6 °F 55% 29.70 in 9.0 mi South 10.4 mph 16.1 mph N/A   Clear
12:35 AM 60.8 °F 44.6 °F 55% 29.70 in 9.0 mi SSE 8.1 mph 16.1 mph N/A   Clear
12:55 AM 60.8 °F 44.6 °F 55% 29.71 in 9.0 mi South 11.5 mph 18.4 mph N/A   Clear
1:15 AM 60.8 °F 44.6 °F 55% 29.73 in 9.0 mi SSW 9.2 mph 16.1 mph N/A   Scattered Clouds
1:35 AM 60.8 °F 46.4 °F 59% 29.73 in 9.0 mi Variable 6.9 mph 15.0 mph N/A   Overcast
1:55 AM 59.0 °F 48.2 °F 67% 29.73 in 6.0 mi Variable 5.8 mph 17.3 mph N/A Rain Light Rain
2:15 AM 59.0 °F 48.2 °F 67% 29.76 in 6.0 mi SSW 3.5 mph - N/A Rain , Thunderstorm Light Thunderstorms and Rain
2:55 AM 57.2 °F 50.0 °F 77% 29.73 in 7.0 mi ESE 4.6 mph - 0.03 in   Overcast
3:15 AM 55.4 °F 50.0 °F 82% 29.73 in 9.0 mi SE 6.9 mph - N/A   Mostly Cloudy
3:30 AM 55.4 °F 50.0 °F 82% 29.72 in 8.0 mi SSE 6.9 mph - N/A   Mostly Cloudy
4:15 AM 55.4 °F 50.0 °F 82% 29.69 in 8.0 mi SSE 8.1 mph - N/A   Clear
4:35 AM 53.6 °F 50.0 °F 88% 29.68 in 9.0 mi SE 9.2 mph - N/A   Partly Cloudy
4:55 AM 53.6 °F 50.0 °F 88% 29.68 in 9.0 mi Variable 5.8 mph 16.1 mph N/A   Partly Cloudy
5:15 AM 55.4 °F 50.0 °F 82% 29.69 in 9.0 mi SE 8.1 mph 15.0 mph N/A   Clear
5:35 AM 53.6 °F 50.0 °F 88% 29.70 in 9.0 mi SE 5.8 mph - N/A   Clear
5:55 AM 53.6 °F 50.0 °F 88% 29.71 in 9.0 mi SE 4.6 mph - N/A   Partly Cloudy
6:15 AM 53.6 °F 50.0 °F 88% 29.73 in 8.0 mi Calm Calm - N/A   Scattered Clouds
6:35 AM 53.6 °F 50.0 °F 88% 29.73 in 8.0 mi SSE 3.5 mph - N/A   Partly Cloudy
6:55 AM 53.6 °F 50.0 °F 88% 29.72 in 9.0 mi SE 4.6 mph - N/A   Clear
7:15 AM 53.6 °F 50.0 °F 88% 29.72 in 9.0 mi Variable 4.6 mph - N/A   Clear
7:35 AM 53.6 °F 50.0 °F 88% 29.73 in 8.0 mi SE 3.5 mph - N/A   Clear
7:55 AM 53.6 °F 50.0 °F 88% 29.74 in 7.0 mi Calm Calm - N/A   Clear
8:15 AM 53.6 °F 50.0 °F 88% 29.75 in 7.0 mi NNW 5.8 mph - N/A   Clear
8:35 AM 55.4 °F 50.0 °F 82% 29.76 in 7.0 mi NNW 5.8 mph - N/A   Clear
8:55 AM 57.2 °F 51.8 °F 82% 29.77 in 7.0 mi Calm Calm - N/A   Clear
9:15 AM 57.2 °F 51.8 °F 82% 29.78 in 7.0 mi Calm Calm - N/A   Clear
9:35 AM 59.0 °F 51.8 °F 77% 29.79 in 6.0 mi SW 3.5 mph - N/A   Haze
9:55 AM 60.8 °F 51.8 °F 72% 29.78 in 6.0 mi Variable 4.6 mph - N/A   Haze
10:15 AM 60.8 °F 51.8 °F 72% 29.79 in 7.0 mi Variable 4.6 mph - N/A   Clear
10:35 AM 64.4 °F 51.8 °F 64% 29.79 in 6.0 mi West 5.8 mph - N/A   Haze
11:15 AM 66.2 °F 51.8 °F 60% 29.79 in 6.0 mi NNW 8.1 mph - N/A   Haze
11:35 AM 68.0 °F 50.0 °F 52% 29.79 in 7.0 mi NW 6.9 mph - N/A   Clear
11:55 AM 68.0 °F 50.0 °F 52% 29.79 in 7.0 mi North 13.8 mph - N/A   Clear
12:15 PM 69.8 °F 50.0 °F 49% 29.79 in 7.0 mi NNW 9.2 mph 16.1 mph N/A   Clear
12:35 PM 69.8 °F 50.0 °F 49% 29.79 in 7.0 mi North 11.5 mph 17.3 mph N/A   Clear
12:55 PM 69.8 °F 50.0 °F 49% 29.78 in 6.0 mi NNW 11.5 mph 19.6 mph N/A   Haze
1:15 PM 71.6 °F 50.0 °F 46% 29.78 in 6.0 mi NNW 10.4 mph 17.3 mph N/A   Haze
1:35 PM 71.6 °F 50.0 °F 46% 29.77 in 5.0 mi North 10.4 mph 17.3 mph N/A   Haze
1:55 PM 73.4 °F 50.0 °F 44% 29.77 in 5.0 mi NNW 11.5 mph 18.4 mph N/A   Haze
2:15 PM 73.4 °F 50.0 °F 44% 29.76 in 10.0 mi North - - N/A   Clear
2:35 PM 73.4 °F 50.0 °F 44% 29.76 in 10.0 mi Variable 6.9 mph 17.3 mph N/A   Clear
2:55 PM 75.2 °F 50.0 °F 41% 29.76 in 10.0 mi NNW 10.4 mph 17.3 mph N/A   Clear
3:15 PM 75.2 °F 50.0 °F 41% 29.76 in 10.0 mi NNW 10.4 mph - N/A   Clear
3:35 PM 73.4 °F 50.0 °F 44% 29.76 in 10.0 mi North 11.5 mph 18.4 mph N/A   Clear
3:55 PM 75.2 °F 50.0 °F 41% 29.76 in 10.0 mi NNE 13.8 mph - N/A   Clear
4:15 PM 75.2 °F 50.0 °F 41% 29.77 in 10.0 mi Variable 6.9 mph 15.0 mph N/A   Clear
4:35 PM 73.4 °F 50.0 °F 44% 29.77 in 10.0 mi NNW 6.9 mph 16.1 mph N/A   Clear
4:55 PM 73.4 °F 50.0 °F 44% 29.77 in 10.0 mi NNW 8.1 mph - N/A   Clear
5:15 PM 73.4 °F 50.0 °F 44% 29.78 in 10.0 mi North 11.5 mph - N/A   Clear
5:35 PM 71.6 °F 50.0 °F 46% 29.78 in 10.0 mi North 8.1 mph - N/A   Clear
5:55 PM 71.6 °F 50.0 °F 46% 29.78 in 10.0 mi NNW 6.9 mph - N/A   Clear
6:15 PM 69.8 °F 50.0 °F 49% 29.79 in 10.0 mi North 4.6 mph - N/A   Clear
6:35 PM 68.0 °F 50.0 °F 52% 29.79 in 10.0 mi North 5.8 mph - N/A   Clear
6:55 PM 64.4 °F 50.0 °F 59% 29.79 in 10.0 mi North 4.6 mph - N/A   Clear
7:15 PM 64.4 °F 50.0 °F 59% 29.80 in 10.0 mi North 5.8 mph - N/A   Clear
7:35 PM 62.6 °F 50.0 °F 63% 29.80 in 10.0 mi North 4.6 mph - N/A   Clear
7:55 PM 62.6 °F 50.0 °F 63% 29.80 in 10.0 mi NNE 4.6 mph - N/A   Clear
8:15 PM 62.6 °F 50.0 °F 63% 29.81 in 10.0 mi North 4.6 mph - N/A   Clear
8:35 PM 60.8 °F 50.0 °F 68% 29.82 in 7.0 mi Calm Calm - N/A   Clear
8:55 PM 57.2 °F 50.0 °F 77% 29.82 in 10.0 mi NW 4.6 mph - N/A   Clear
9:15 PM 57.2 °F 50.0 °F 77% 29.82 in 10.0 mi NNW 4.6 mph - N/A   Clear
9:35 PM 55.4 °F 50.0 °F 82% 29.83 in 6.0 mi Calm Calm - N/A   Haze
9:55 PM 59.0 °F 50.0 °F 72% 29.83 in 9.0 mi Calm Calm - N/A   Partly Cloudy
10:15 PM 57.2 °F 50.0 °F 77% 29.83 in 4.0 mi NW 3.5 mph - N/A   Haze
10:35 PM 55.4 °F 50.0 °F 82% 29.83 in 2.5 mi NNW 3.5 mph - N/A   Haze
10:55 PM 57.2 °F 50.0 °F 77% 29.84 in 3.0 mi North 6.9 mph - N/A   Haze
11:15 PM 55.4 °F 50.0 °F 82% 29.84 in 8.0 mi North 3.5 mph - N/A   Mostly Cloudy
11:35 PM 57.2 °F 50.0 °F 77% 29.85 in 2.0 mi North 5.8 mph - N/A   Haze
11:55 PM 55.4 °F 50.0 °F 82% 29.84 in 2.5 mi NNE 3.5 mph - N/A   Haze